[[{"header":{"parameterUnit":"m.s-1","parameterCategory":2,"la1":30.2991,"la2":30.254,"lo1":-89.0895,"lo2":-89.0444,"dy":0.0017,"dx":0.0017,"nx":28,"ny":28,"refTime":"2024-07-08T03:00:00:Z","depth":"0","parameterNumber":2,"parameterNumberName":"U-component_of_CURRENTS"},"data":[0,0,0,0,0,0,0,0,0,0,0,0,0,0,0,0,0,0,0,0,0,0,0,0,0,0,0,0,0,0,0,0,0,0,0,0,0,0,0,0,0,0,0,0,0,0,0,0,0,0,0,0,0,0,0,0,0,0,0.1188,0.1188,0,0.1189,0.1189,0.1189,0.1151,0.115,0.115,0.1149,0.1118,0.1118,0.1118,0,0,0,0,0,0,0,0,0,0,0,0,0,0.1117,0.1119,0.1188,0.1188,0.1188,0.1189,0.1189,0.1189,0.1151,0.115,0.1149,0.1148,0.1118,0.1118,0.1118,0,0,0,0,0,0,0,0,0,0,0,0,0,0.1135,0.112,0.1188,0.1171,0.117,0.1189,0.1189,0.1189,0.1152,0.115,0.1149,0.1148,0.1119,0.1118,0.1118,0.1143,0,0,0.1118,0.1118,0,0,0,0,0,0,0,0,0.1134,0.1137,0.1173,0.1172,0.1171,0.117,0.1153,0.1173,0.1152,0.1156,0.1149,0.1147,0.1135,0.1134,0.1134,0.1142,0.1141,0.1118,0.1118,0.1118,0.1118,0,0,0,0,0,0,0,0.1133,0.1137,0.1186,0.1174,0.1172,0.1151,0.1153,0.1157,0.1151,0.1156,0.1154,0.1157,0.1134,0.1135,0.1133,0.114,0.1118,0.1118,0.1118,0.1118,0.1249,0.1253,0,0,0,0,0,0,0.114,0.1136,0.1186,0.1187,0.1151,0.1154,0.1155,0.117,0.1151,0.1148,0.1158,0.1156,0.1135,0.1133,0.1132,0.1218,0.1118,0.1118,0.1118,0.1246,0.125,0.1254,0,0,0,0,0,0,0.1139,0.1145,0.1186,0.1162,0.1166,0.1157,0.1174,0.1171,0.1175,0.1154,0.1149,0.1165,0.1134,0.1132,0.1146,0.1214,0.1118,0.1118,0.1242,0.1247,0.1252,0.1353,0,0,0,0,0,0,0.1137,0.1145,0.116,0.1163,0.1168,0.1201,0.1175,0.1172,0.1179,0.1176,0.1159,0.1154,0.1133,0.1146,0.1146,0.1212,0.1118,0.1237,0.1244,0.125,0.1345,0.1361,0.1374,0,0,0,0,0,0.1135,0.116,0.1161,0.1167,0.1189,0.1202,0.1203,0.119,0.1181,0.1188,0.1181,0.1155,0.1189,0.1148,0.1147,0.1215,0.1234,0.1242,0.125,0.1338,0.1357,0.1374,0,0,0,0,0,0,0.1132,0.116,0.116,0.1191,0.1198,0.1196,0.1207,0.1201,0.1202,0.1202,0.1177,0.1173,0.1222,0.1205,0.1161,0.1278,0.1218,0.1226,0.1286,0.1303,0.1318,0.1345,0.1118,0,0,0,0,0,0.1143,0.1172,0.1184,0.1209,0.1217,0.1216,0.1221,0.1216,0.1218,0.1217,0.1204,0.1217,0.1257,0.1264,0.128,0.1325,0.139,0.1379,0.1394,0.1406,0.1432,0.1618,0.1653,0.128,0.128,0.128,0,0,0.1145,0.1167,0.1181,0.1211,0.1217,0.1239,0.1216,0.1233,0.1259,0.1215,0.1244,0.1259,0.1281,0.134,0.1363,0.133,0.1545,0.1416,0.1426,0.1446,0.163,0.1667,0.1699,0.1285,0.1284,0.1283,0,0,0.1173,0.119,0.1225,0.1235,0.1257,0.1261,0.127,0.1277,0.129,0.1315,0.1322,0.1383,0.1389,0.145,0.1478,0.1588,0.1618,0.1591,0.1682,0.1863,0.1895,0.1925,0.2046,0.2086,0.1597,0.1597,0.1597,0,0.1173,0.1222,0.1234,0.1265,0.1279,0.1276,0.1307,0.1327,0.1336,0.1383,0.1333,0.1461,0.1459,0.1607,0.1638,0.1626,0.1709,0.1606,0.1884,0.1915,0.1943,0.2061,0.2103,0.1603,0.1602,0.1602,0.1601,0,0.1228,0.1257,0.1277,0.1321,0.1338,0.1362,0.1389,0.1421,0.1431,0.1467,0.1591,0.1613,0.1705,0.1721,0.1698,0.1916,0.1903,0.1883,0.1838,0.1988,0.2101,0.2143,0.1611,0.1609,0.1607,0.1606,0,0,0.1254,0.1306,0.1312,0.1341,0.137,0.1396,0.1457,0.1537,0.1623,0.165,0.1791,0.186,0.1904,0.1943,0.1963,0.2093,0.2343,0.2068,0.2075,0.2186,0.2725,0.2647,0.2685,0.238,0.2388,0.2395,0.2719,0,0.1292,0.1354,0.1376,0.1434,0.1467,0.1491,0.1562,0.1638,0.1698,0.183,0.1928,0.2054,0.1985,0.2058,0.2187,0.2314,0.2462,0.2256,0.2566,0.2575,0.2488,0.2735,0.2673,0.2953,0.276,0.2767,0.2773,0,0.135,0.1381,0.1437,0.1516,0.1538,0.1576,0.1707,0.1773,0.1954,0.2014,0.2164,0.2241,0.2454,0.2368,0.2688,0.2563,0.2664,0.2738,0.2753,0.2679,0.2579,0.2777,0.3037,0.2974,0.2838,0.2832,0.2828,0,0.1378,0.1438,0.1485,0.1499,0.1578,0.1634,0.1697,0.184,0.1947,0.2163,0.2286,0.2504,0.2654,0.2832,0.2946,0.2866,0.3283,0.3199,0.3231,0.3223,0.3232,0.3211,0.3469,0.347,0.3469,0.3469,0.3468,0,0.1425,0.1468,0.15,0.1525,0.1627,0.1671,0.1822,0.1912,0.2099,0.2271,0.2404,0.259,0.2785,0.3009,0.3087,0.33,0.3418,0.3321,0.3345,0.3258,0.3237,0.3222,0.3172,0.3481,0.3478,0.3476,0.3474,0,0.1482,0.1478,0.1548,0.1617,0.1642,0.1727,0.1881,0.2017,0.2159,0.2397,0.2488,0.2747,0.3033,0.32,0.3501,0.3491,0.3608,0.3715,0.3558,0.3557,0.3464,0.342,0.3494,0.3418,0.3844,0.3845,0.3845,0,0.1534,0.1566,0.1622,0.1667,0.1702,0.1813,0.1919,0.2044,0.2182,0.2479,0.2623,0.2946,0.3146,0.3538,0.365,0.3847,0.3705,0.3844,0.3674,0.3527,0.3499,0.3237,0.3147,0.3735,0.3735,0.3735,0.3734,0,0.1666,0.167,0.1732,0.1785,0.1865,0.1957,0.2094,0.2181,0.2355,0.2531,0.2774,0.2947,0.3324,0.3512,0.3736,0.3818,0.3667,0.3837,0.3794,0.3551,0.3187,0.31,0.3396,0.3732,0.3732,0.3732,0.3732,0.3732,0.18,0.1851,0.1896,0.1958,0.2013,0.2064,0.2125,0.2258,0.2407,0.2607,0.2797,0.301,0.332,0.3639,0.3691,0.3753,0.3666,0.3707,0.3706,0.3479,0.3288,0.3527,0.3793,0.3793,0.3794,0.3794,0.3795,0,0.1949,0.1987,0.2069,0.2097,0.2129,0.2129,0.2228,0.2256,0.2358,0.2566,0.2731,0.3051,0.327,0.3479,0.3669,0.3626,0.3416,0.3604,0.3289,0.3241,0.3618,0.3492,0.3571,0.3571,0.3571,0.3571,0.3571,0.3571,0.2041,0.2129,0.2135,0.2182,0.2179,0.2166,0.2175,0.2205,0.23,0.2462,0.2636,0.2824,0.3161,0.3502,0.3552,0.3512,0.328,0.3192,0.3148,0.3485,0.3493,0.3501,0.3373,0.3426,0.3426,0.2625,0.262,0.2617]},{"header":{"parameterUnit":"m.s-1","parameterCategory":2,"la1":30.2991,"la2":30.254,"lo1":-89.0895,"lo2":-89.0444,"dy":0.0017,"dx":0.0017,"nx":28,"ny":28,"refTime":"2024-07-08T03:00:00:Z","depth":"0","parameterNumber":3,"parameterNumberName":"V-component_of_CURRENTS"},"data":[0,0,0,0,0,0,0,0,0,0,0,0,0,0,0,0,0,0,0,0,0,0,0,0,0,0,0,0,0,0,0,0,0,0,0,0,0,0,0,0,0,0,0,0,0,0,0,0,0,0,0,0,0,0,0,0,0,0,-0.0095,-0.0095,0,-0.009,-0.009,-0.009,-0.0087,-0.0087,-0.0087,-0.0087,-0.0062,-0.0062,-0.0061,0,0,0,0,0,0,0,0,0,0,0,0,0,-0.0117,-0.0117,-0.0095,-0.0095,-0.0095,-0.009,-0.009,-0.009,-0.0087,-0.0087,-0.0087,-0.0086,-0.0063,-0.0062,-0.0061,0,0,0,0,0,0,0,0,0,0,0,0,0,-0.011,-0.0117,-0.0095,-0.0092,-0.0092,-0.009,-0.009,-0.009,-0.0087,-0.0087,-0.0087,-0.0086,-0.0063,-0.0062,-0.0061,-0.0058,0,0,-0.0059,-0.0058,0,0,0,0,0,0,0,0,-0.0111,-0.0109,-0.0093,-0.0093,-0.0092,-0.0088,-0.0089,-0.0078,-0.0087,-0.009,-0.0087,-0.0086,-0.0069,-0.0068,-0.0068,-0.0057,-0.0056,-0.0059,-0.0058,-0.0058,-0.0057,0,0,0,0,0,0,0,-0.0111,-0.011,-0.0094,-0.0093,-0.0092,-0.0096,-0.0095,-0.0087,-0.008,-0.0089,-0.0089,-0.0087,-0.0069,-0.0069,-0.0067,-0.0056,-0.0059,-0.0058,-0.0057,-0.0057,0.0022,0.0024,0,0,0,0,0,0,-0.011,-0.011,-0.0094,-0.0094,-0.01,-0.0096,-0.0094,-0.009,-0.0081,-0.0079,-0.0087,-0.0087,-0.0071,-0.0068,-0.0067,0.0011,-0.0058,-0.0057,-0.0056,0.0021,0.0023,0.0025,0,0,0,0,0,0,-0.011,-0.0108,-0.0094,-0.0101,-0.01,-0.0095,-0.0091,-0.009,-0.0089,-0.0079,-0.0077,-0.0086,-0.007,-0.0068,-0.0058,0.0009,-0.0056,-0.0056,0.0019,0.0022,0.0024,0.012,0,0,0,0,0,0,-0.0111,-0.0108,-0.011,-0.0101,-0.0099,-0.0096,-0.0091,-0.009,-0.0088,-0.0087,-0.0078,-0.0075,-0.007,-0.0059,-0.0057,0.0009,-0.0055,0.0017,0.002,0.0023,0.0114,0.0125,0.0134,0,0,0,0,0,-0.0111,-0.0115,-0.011,-0.0108,-0.01,-0.0096,-0.0096,-0.0093,-0.0088,-0.0091,-0.008,-0.0076,-0.0037,-0.0059,-0.0056,0.0013,0.0016,0.0019,0.0023,0.011,0.0123,0.0134,0,0,0,0,0,0,-0.0129,-0.0114,-0.0109,-0.0109,-0.0103,-0.0095,-0.0099,-0.0092,-0.0087,-0.0085,-0.0074,-0.0071,-0.003,-0.0036,-0.0059,0.0043,-0.0002,0.0002,0.0064,0.0076,0.0085,0.014,-0.0054,0,0,0,0,0,-0.0132,-0.0128,-0.0116,-0.0117,-0.0114,-0.0105,-0.0104,-0.01,-0.0091,-0.0089,-0.0081,-0.0058,-0.0013,0.0005,0.002,0.0062,0.0073,0.0112,0.0122,0.0131,0.0176,0.023,0.025,0.0036,0.0036,0.0036,0,0,-0.0137,-0.013,-0.0128,-0.012,-0.0115,-0.0095,-0.0105,-0.0102,-0.0057,-0.0087,-0.0042,-0.0037,-0.0,0.0056,0.0077,0.0062,0.0191,0.0135,0.0143,0.0184,0.0236,0.0257,0.0276,0.0039,0.0038,0.0038,0,0,-0.0137,-0.014,-0.0131,-0.0124,-0.0115,-0.0101,-0.0098,-0.0089,-0.0058,-0.003,-0.001,0.0037,0.0056,0.013,0.0168,0.0239,0.0231,0.0233,0.0344,0.0395,0.0413,0.043,0.0446,0.0464,0.025,0.025,0.0251,0,-0.014,-0.012,-0.013,-0.0115,-0.0087,-0.0097,-0.0059,-0.0032,-0.0017,0.0059,-0.0009,0.0115,0.0116,0.028,0.0298,0.0272,0.0272,0.0297,0.041,0.0427,0.0443,0.0456,0.0474,0.0256,0.0255,0.0254,0.0254,0,-0.0122,-0.0106,-0.0102,-0.0069,-0.0047,-0.0027,0.0019,0.0063,0.0087,0.0142,0.0265,0.0258,0.0363,0.0357,0.0346,0.0492,0.0444,0.0406,0.0385,0.0471,0.0477,0.0495,0.0263,0.0261,0.0259,0.0258,0,0,-0.0102,-0.0087,-0.0081,-0.0026,-0.0012,0.0035,0.0115,0.024,0.0377,0.036,0.0545,0.0576,0.0595,0.0639,0.0636,0.0662,0.0741,0.0581,0.0581,0.0607,0.0827,0.0757,0.0768,0.0709,0.0713,0.0717,0.0777,0,-0.0069,-0.0019,-0.0015,0.0079,0.0127,0.0173,0.0283,0.0397,0.0481,0.0643,0.0695,0.0829,0.0703,0.0771,0.0781,0.0783,0.0795,0.0727,0.0734,0.0735,0.0671,0.0791,0.0732,0.0779,0.0794,0.0797,0.0799,0,-0.003,0.0011,0.0086,0.0231,0.0266,0.0328,0.0561,0.0662,0.0875,0.0945,0.1065,0.1106,0.122,0.1057,0.109,0.1046,0.0952,0.0892,0.0893,0.0821,0.07,0.0701,0.081,0.0566,0.0825,0.0823,0.0821,0,0.0036,0.0111,0.0191,0.022,0.0352,0.0458,0.0569,0.0772,0.0952,0.1165,0.1306,0.1397,0.1489,0.1399,0.1271,0.1199,0.1254,0.1151,0.0992,0.0984,0.094,0.0921,0.0833,0.1149,0.1149,0.1149,0.1149,0,0.0096,0.0182,0.0236,0.0291,0.0497,0.0555,0.0828,0.0952,0.119,0.1437,0.1482,0.1666,0.1571,0.1591,0.1402,0.1277,0.1365,0.1061,0.1024,0.0964,0.0948,0.0735,0.0654,0.1151,0.1151,0.115,0.115,0,0.0198,0.0183,0.0329,0.0467,0.0525,0.0702,0.0987,0.1211,0.1369,0.1686,0.1771,0.193,0.1953,0.1816,0.1705,0.1481,0.1212,0.1245,0.1164,0.1116,0.0722,0.0651,0.0595,0.0486,0.1121,0.112,0.112,0,0.027,0.0332,0.0483,0.0594,0.0669,0.0908,0.1103,0.1295,0.1515,0.1842,0.201,0.2145,0.2253,0.208,0.175,0.1469,0.1221,0.1168,0.1022,0.0743,0.0637,0.0546,0.0451,0.0987,0.0985,0.0983,0.0982,0,0.0496,0.0524,0.0651,0.0815,0.0996,0.1232,0.1484,0.165,0.1891,0.2115,0.2374,0.2485,0.2365,0.2114,0.1727,0.148,0.1007,0.1126,0.0887,0.0594,0.045,0.0311,0.0869,0.0969,0.097,0.0971,0.0972,0.0973,0.0725,0.084,0.095,0.1123,0.1296,0.15,0.1698,0.1918,0.2203,0.2485,0.2579,0.2718,0.2335,0.1848,0.1522,0.0851,0.0924,0.0595,0.0553,0.0499,0.0342,0.0855,0.0872,0.0873,0.0873,0.0874,0.0874,0,0.101,0.1087,0.1262,0.1431,0.1607,0.1648,0.1928,0.2089,0.2339,0.2571,0.2756,0.2618,0.2098,0.156,0.0729,0.0311,0.0138,0.0098,-0.0054,-0.0109,0.0387,0.032,0.0158,0.0158,0.0159,0.0159,0.0159,0.0159,0.1182,0.1358,0.1378,0.1655,0.1763,0.1992,0.2121,0.2304,0.2468,0.2698,0.2768,0.283,0.2392,0.0976,-0.0045,-0.0252,-0.0535,-0.0537,-0.0656,-0.0359,-0.0318,-0.028,-0.0369,-0.0672,-0.0672,-0.1196,-0.12,-0.1204]}],[{"header":{"parameterUnit":"m.s-1","parameterCategory":2,"la1":30.2991,"la2":30.254,"lo1":-89.0895,"lo2":-89.0444,"dy":0.0017,"dx":0.0017,"nx":28,"ny":28,"refTime":"2024-07-08T03:00:00:Z","depth":"2","parameterNumber":2,"parameterNumberName":"U-component_of_CURRENTS"},"data":[0,0,0,0,0,0,0,0,0,0,0,0,0,0,0,0,0,0,0,0,0,0,0,0,0,0,0,0,0,0,0,0,0,0,0,0,0,0,0,0,0,0,0,0,0,0,0,0,0,0,0,0,0,0,0,0,0,0,0.1136,0.1137,0,0.1151,0.1151,0.1151,0.112,0.1119,0.1118,0.1118,0.1092,0.1092,0.1092,0,0,0,0,0,0,0,0,0,0,0,0,0,0.1076,0.1077,0.1136,0.1137,0.1137,0.1151,0.1151,0.1151,0.112,0.1119,0.1118,0.1117,0.1092,0.1092,0.1092,0,0,0,0,0,0,0,0,0,0,0,0,0,0.1095,0.1078,0.1136,0.1126,0.1126,0.1151,0.1151,0.1151,0.112,0.1119,0.1118,0.1117,0.1092,0.1092,0.1092,0.1113,0,0,0.1092,0.1092,0,0,0,0,0,0,0,0,0.1094,0.1097,0.1127,0.1127,0.1126,0.1136,0.1121,0.1138,0.112,0.1118,0.1118,0.1116,0.1106,0.1105,0.1106,0.1112,0.1111,0.1092,0.1092,0.1092,0.1092,0,0,0,0,0,0,0,0.1093,0.1096,0.1139,0.1128,0.1127,0.112,0.1121,0.1124,0.1115,0.1118,0.1117,0.1125,0.1105,0.1106,0.1105,0.1111,0.1092,0.1092,0.1092,0.1092,0.1221,0.1224,0,0,0,0,0,0,0.1099,0.1095,0.1138,0.114,0.1111,0.1122,0.1123,0.1131,0.1115,0.1113,0.1126,0.1123,0.1106,0.1105,0.1104,0.1183,0.1092,0.1092,0.1092,0.1218,0.1222,0.1226,0,0,0,0,0,0,0.1098,0.1103,0.1138,0.112,0.1124,0.1124,0.1133,0.1132,0.1141,0.1122,0.1118,0.1137,0.1106,0.1104,0.1122,0.1179,0.1092,0.1092,0.1214,0.1219,0.1224,0.1306,0,0,0,0,0,0,0.1096,0.1103,0.1115,0.1121,0.1126,0.1159,0.1135,0.1133,0.1148,0.1145,0.1131,0.1127,0.1105,0.1122,0.1122,0.1178,0.1092,0.1209,0.1216,0.1222,0.1299,0.1313,0.1326,0,0,0,0,0,0.1094,0.1117,0.1115,0.1121,0.1141,0.116,0.1162,0.1155,0.115,0.1158,0.1155,0.1127,0.1164,0.1124,0.1123,0.118,0.1206,0.1214,0.1222,0.1293,0.131,0.1325,0,0,0,0,0,0,0.1094,0.1117,0.1114,0.1142,0.1152,0.1156,0.1173,0.1169,0.1174,0.1175,0.1151,0.1148,0.1195,0.1181,0.1138,0.1244,0.119,0.1198,0.1245,0.1261,0.1274,0.128,0.1092,0,0,0,0,0,0.1103,0.1127,0.1139,0.1161,0.1173,0.1176,0.1186,0.1183,0.1189,0.119,0.1179,0.1192,0.1228,0.1235,0.125,0.1292,0.1312,0.1339,0.1352,0.1363,0.1373,0.1495,0.152,0.1251,0.1251,0.1251,0,0,0.1109,0.1126,0.1138,0.1164,0.1175,0.1198,0.1179,0.1203,0.1229,0.1188,0.1218,0.1232,0.1251,0.1304,0.1326,0.1295,0.1445,0.1373,0.1382,0.1385,0.1506,0.1532,0.1555,0.1256,0.1255,0.1255,0,0,0.1141,0.1152,0.1185,0.1195,0.1221,0.1226,0.1237,0.1248,0.1261,0.1289,0.1293,0.1336,0.1355,0.1394,0.1417,0.1517,0.1514,0.1536,0.16,0.172,0.1742,0.1763,0.1789,0.1812,0.1539,0.154,0.154,0,0.1145,0.1187,0.1197,0.1227,0.1244,0.1242,0.1276,0.1295,0.1307,0.1339,0.1307,0.1416,0.1405,0.1526,0.1549,0.1546,0.1589,0.1529,0.1736,0.1757,0.1777,0.18,0.1823,0.1544,0.1544,0.1543,0.1543,0,0.1202,0.1228,0.1251,0.1288,0.1308,0.1335,0.136,0.1391,0.1403,0.1418,0.1523,0.1539,0.1612,0.1625,0.1602,0.1759,0.1733,0.174,0.1689,0.1809,0.1824,0.1847,0.1551,0.155,0.1548,0.1547,0,0,0.1229,0.1279,0.1286,0.1314,0.1341,0.1368,0.1428,0.1489,0.1562,0.1579,0.1687,0.1738,0.1764,0.1796,0.1816,0.1892,0.2026,0.187,0.1874,0.1882,0.2247,0.2088,0.2096,0.2088,0.2093,0.2097,0.2189,0,0.127,0.1332,0.135,0.141,0.1444,0.1466,0.1529,0.1583,0.1634,0.173,0.1791,0.1889,0.1834,0.1899,0.1974,0.2022,0.2098,0.1997,0.2141,0.2144,0.1979,0.2123,0.1995,0.2056,0.2211,0.2215,0.2217,0,0.1327,0.1358,0.1418,0.1489,0.1511,0.1545,0.1664,0.1724,0.1847,0.1894,0.2005,0.2056,0.2174,0.2124,0.2275,0.2223,0.2246,0.2263,0.2268,0.2109,0.203,0.1972,0.2091,0.2255,0.2252,0.2249,0.2247,0,0.1355,0.1416,0.1467,0.148,0.1553,0.1605,0.1659,0.177,0.1855,0.202,0.209,0.2246,0.2335,0.242,0.2409,0.2386,0.2549,0.2529,0.2408,0.2394,0.2304,0.2272,0.2672,0.2672,0.2672,0.2672,0.2671,0,0.1397,0.1441,0.1482,0.1506,0.1606,0.1639,0.1786,0.1855,0.1987,0.2092,0.2186,0.2282,0.2425,0.2507,0.2498,0.2497,0.2632,0.2443,0.2437,0.232,0.2291,0.2479,0.2455,0.2675,0.2674,0.2673,0.2673,0,0.1441,0.145,0.1525,0.1593,0.1622,0.1702,0.1841,0.1942,0.2039,0.2189,0.2245,0.2365,0.2432,0.2507,0.263,0.2591,0.2614,0.2581,0.2373,0.234,0.2354,0.2334,0.2493,0.2489,0.2485,0.2482,0.248,0,0.1482,0.1514,0.1594,0.1638,0.1672,0.1789,0.1869,0.1973,0.2052,0.2198,0.2239,0.236,0.2385,0.2455,0.2459,0.246,0.251,0.2333,0.2263,0.2373,0.2352,0.2337,0.2322,0.2172,0.2167,0.2163,0.216,0,0.1583,0.1601,0.1662,0.1706,0.1775,0.187,0.1957,0.2002,0.211,0.2184,0.2213,0.2239,0.23,0.224,0.2244,0.221,0.232,0.2245,0.2518,0.22,0.2069,0.2046,0.2044,0.2125,0.2128,0.2131,0.2133,0.2134,0.1674,0.1714,0.1744,0.1764,0.1862,0.1862,0.1877,0.1923,0.1966,0.1977,0.209,0.204,0.2088,0.1963,0.1932,0.1935,0.2058,0.2016,0.2031,0.205,0.196,0.1827,0.1817,0.1818,0.182,0.1821,0.1822,0,0.1702,0.1712,0.1776,0.1781,0.1807,0.1852,0.187,0.1804,0.1743,0.1819,0.1826,0.1655,0.1631,0.1654,0.1633,0.1653,0.1668,0.158,0.1627,0.1663,0.1695,0.1588,0.1346,0.1344,0.1342,0.1341,0,0,0.1721,0.1706,0.1661,0.1647,0.1678,0.1649,0.1597,0.1501,0.1484,0.1382,0.1368,0.1498,0.1575,0.1404,0.1433,0.14,0.1502,0.1337,0.1726,0.1816,0.1844,0.196,0.1837,0,0,0,0,0]},{"header":{"parameterUnit":"m.s-1","parameterCategory":2,"la1":30.2991,"la2":30.254,"lo1":-89.0895,"lo2":-89.0444,"dy":0.0017,"dx":0.0017,"nx":28,"ny":28,"refTime":"2024-07-08T03:00:00:Z","depth":"2","parameterNumber":3,"parameterNumberName":"V-component_of_CURRENTS"},"data":[0,0,0,0,0,0,0,0,0,0,0,0,0,0,0,0,0,0,0,0,0,0,0,0,0,0,0,0,0,0,0,0,0,0,0,0,0,0,0,0,0,0,0,0,0,0,0,0,0,0,0,0,0,0,0,0,0,0,-0.0287,-0.0287,0,-0.026,-0.0259,-0.0259,-0.0256,-0.0256,-0.0256,-0.0256,-0.0248,-0.0248,-0.0247,0,0,0,0,0,0,0,0,0,0,0,0,0,-0.0301,-0.0301,-0.0287,-0.0287,-0.0286,-0.026,-0.0259,-0.0259,-0.0256,-0.0256,-0.0256,-0.0256,-0.0248,-0.0248,-0.0247,0,0,0,0,0,0,0,0,0,0,0,0,0,-0.029,-0.0302,-0.0287,-0.0279,-0.0277,-0.026,-0.0259,-0.0259,-0.0256,-0.0256,-0.0256,-0.0256,-0.0248,-0.0248,-0.0247,-0.0246,0,0,-0.0246,-0.0246,0,0,0,0,0,0,0,0,-0.029,-0.029,-0.0281,-0.0279,-0.0278,-0.0258,-0.0261,-0.0255,-0.0256,-0.0268,-0.0256,-0.0256,-0.0251,-0.025,-0.025,-0.0246,-0.0246,-0.0246,-0.0246,-0.0246,-0.0246,0,0,0,0,0,0,0,-0.0291,-0.0291,-0.028,-0.028,-0.0278,-0.0263,-0.0263,-0.026,-0.0263,-0.0267,-0.0266,-0.0257,-0.0251,-0.025,-0.025,-0.0245,-0.0246,-0.0246,-0.0246,-0.0246,-0.0195,-0.0193,0,0,0,0,0,0,-0.029,-0.0292,-0.028,-0.0278,-0.028,-0.0263,-0.0262,-0.0267,-0.0263,-0.0261,-0.0257,-0.0257,-0.0251,-0.025,-0.0249,-0.0209,-0.0246,-0.0246,-0.0246,-0.0196,-0.0194,-0.0193,0,0,0,0,0,0,-0.0291,-0.029,-0.0282,-0.0281,-0.0278,-0.0263,-0.0269,-0.0267,-0.0257,-0.0254,-0.0254,-0.0248,-0.0251,-0.025,-0.0242,-0.021,-0.0246,-0.0245,-0.0197,-0.0195,-0.0194,-0.0154,0,0,0,0,0,0,-0.0292,-0.0291,-0.0294,-0.0281,-0.0278,-0.0269,-0.0268,-0.0266,-0.0251,-0.025,-0.0246,-0.0246,-0.025,-0.0242,-0.0241,-0.021,-0.0245,-0.0199,-0.0196,-0.0194,-0.0156,-0.0151,-0.0146,0,0,0,0,0,-0.0292,-0.0296,-0.0295,-0.0293,-0.0284,-0.0269,-0.0266,-0.0257,-0.025,-0.0248,-0.0243,-0.0246,-0.0227,-0.0242,-0.0241,-0.0209,-0.02,-0.0197,-0.0194,-0.0159,-0.0152,-0.0146,0,0,0,0,0,0,-0.0301,-0.0295,-0.0294,-0.0296,-0.0282,-0.0267,-0.0258,-0.0251,-0.0245,-0.0243,-0.0241,-0.0241,-0.022,-0.0222,-0.0238,-0.0186,-0.0209,-0.0206,-0.0182,-0.0175,-0.017,-0.0177,-0.0245,0,0,0,0,0,-0.0305,-0.0308,-0.0296,-0.0294,-0.0286,-0.0271,-0.0262,-0.0256,-0.0246,-0.0243,-0.0241,-0.023,-0.0209,-0.02,-0.0195,-0.0172,-0.02,-0.0147,-0.0142,-0.0137,-0.0141,-0.0148,-0.0144,-0.0184,-0.0184,-0.0184,0,0,-0.0302,-0.0302,-0.03,-0.0295,-0.0283,-0.0264,-0.0266,-0.0251,-0.0222,-0.0243,-0.0214,-0.0219,-0.0201,-0.0175,-0.0164,-0.0172,-0.0145,-0.0134,-0.013,-0.0136,-0.0144,-0.0141,-0.0137,-0.0183,-0.0183,-0.0183,0,0,-0.029,-0.0301,-0.0293,-0.0284,-0.0268,-0.0259,-0.0251,-0.0238,-0.0218,-0.0198,-0.0194,-0.0193,-0.0163,-0.0153,-0.0136,-0.01,-0.0121,-0.0078,-0.005,-0.0056,-0.0054,-0.0051,-0.0106,-0.0109,-0.0069,-0.0069,-0.0069,0,-0.0284,-0.0277,-0.0285,-0.0272,-0.025,-0.0252,-0.0222,-0.0204,-0.0189,-0.0188,-0.0184,-0.014,-0.0153,-0.0092,-0.0089,-0.0089,-0.0106,-0.0076,-0.0051,-0.0049,-0.0048,-0.0104,-0.0108,-0.0067,-0.0067,-0.0067,-0.0067,0,-0.0261,-0.0253,-0.0244,-0.0227,-0.021,-0.019,-0.0163,-0.0147,-0.0132,-0.0144,-0.0097,-0.0086,-0.0053,-0.0055,-0.0067,-0.0036,-0.0059,-0.005,-0.0071,-0.0041,-0.0103,-0.0108,-0.0063,-0.0064,-0.0065,-0.0065,0,0,-0.024,-0.023,-0.0223,-0.0191,-0.0183,-0.0151,-0.0116,-0.0094,-0.0046,-0.0058,0.0014,0.0004,0.0001,0.0021,0.004,0.0014,-0.0024,-0.0013,-0.0014,-0.0076,-0.0064,-0.0168,-0.0184,0.0004,0.0004,0.0004,-0.0122,0,-0.0208,-0.017,-0.0175,-0.0111,-0.0077,-0.007,-0.0018,-0.001,0.0008,0.0062,0.0056,0.0108,0.0049,0.0101,0.0071,0.0016,-0.0029,0.0007,-0.0077,-0.0081,-0.0182,-0.0189,-0.0113,-0.0224,-0.0127,-0.0128,-0.0128,0,-0.0173,-0.0147,-0.0092,-0.002,-0.0,0.0032,0.012,0.0174,0.0195,0.0213,0.0234,0.0232,0.0221,0.0194,0.0089,0.0125,0.0025,-0.0045,-0.005,-0.0164,-0.0192,-0.0232,-0.0237,-0.0137,-0.0136,-0.0135,-0.0135,0,-0.0125,-0.0075,-0.0022,-0.0004,0.0061,0.0103,0.0155,0.0187,0.0228,0.0318,0.0336,0.0344,0.0353,0.0272,0.0093,0.0107,-0.0046,-0.0034,-0.0229,-0.0239,-0.0203,-0.0211,-0.0125,-0.0125,-0.0125,-0.0124,-0.0124,0,-0.0085,-0.0028,0.0008,0.0043,0.0154,0.0176,0.0299,0.0342,0.0384,0.0404,0.0436,0.0432,0.0364,0.026,0.0134,-0.0083,-0.0017,-0.0245,-0.0274,-0.0192,-0.0196,-0.0132,-0.0131,-0.0129,-0.0128,-0.0127,-0.0126,0,-0.0032,-0.0023,0.0073,0.0147,0.0177,0.0275,0.0364,0.0432,0.0467,0.0521,0.0537,0.0448,0.027,0.0172,-0.001,-0.0079,-0.0236,-0.0334,-0.0267,-0.0288,-0.0436,-0.0431,-0.0542,-0.0546,-0.055,-0.0554,-0.0556,0,-0.0002,0.0036,0.0156,0.0206,0.0241,0.0366,0.0438,0.0491,0.05,0.0478,0.0457,0.0304,0.019,-0.0089,-0.024,-0.0427,-0.0456,-0.0491,-0.0465,-0.046,-0.0476,-0.0465,-0.0456,-0.0405,-0.0407,-0.0408,-0.0408,0,0.0076,0.0116,0.0185,0.0235,0.0319,0.0426,0.0477,0.0474,0.0502,0.05,0.0337,0.0247,0.0017,-0.0178,-0.0395,-0.052,-0.0434,-0.0528,-0.0501,-0.0328,-0.0345,-0.0357,-0.0349,-0.0418,-0.0417,-0.0416,-0.0416,-0.0415,0.0125,0.0161,0.0178,0.0217,0.0329,0.0331,0.0387,0.0395,0.0362,0.0347,0.0242,0.0219,0.0062,-0.0227,-0.0436,-0.061,-0.0639,-0.0634,-0.0623,-0.0613,-0.0591,-0.0616,-0.0738,-0.0739,-0.0739,-0.074,-0.0741,0,0.0051,0.0051,0.0114,0.0127,0.0192,0.0265,0.0289,0.0326,0.0271,0.0369,0.0315,0.0205,0.0023,-0.0181,-0.0421,-0.0591,-0.0521,-0.0673,-0.0509,-0.0501,-0.0494,-0.0458,-0.0574,-0.0573,-0.0573,-0.0573,0,0,-0.0004,-0.008,-0.0114,-0.0109,-0.0026,0.0026,0.0041,0.0138,0.0214,0.0293,0.038,0.044,0.0168,0.0033,-0.0239,-0.0396,-0.0397,-0.0428,-0.0543,-0.0311,-0.03,-0.0462,-0.0399,0,0,0,0,0]}],[{"header":{"parameterUnit":"m.s-1","parameterCategory":2,"la1":30.2991,"la2":30.254,"lo1":-89.0895,"lo2":-89.0444,"dy":0.0017,"dx":0.0017,"nx":28,"ny":28,"refTime":"2024-07-08T03:00:00:Z","depth":"4","parameterNumber":2,"parameterNumberName":"U-component_of_CURRENTS"},"data":[0,0,0,0,0,0,0,0,0,0,0,0,0,0,0,0,0,0,0,0,0,0,0,0,0,0,0,0,0,0,0,0,0,0,0,0,0,0,0,0,0,0,0,0,0,0,0,0,0,0,0,0,0,0,0,0,0,0,0.0415,0.0415,0,0.0454,0.0455,0.0455,0.0488,0.0488,0.0488,0.0488,0.0581,0.0583,0.0585,0,0,0,0,0,0,0,0,0,0,0,0,0,0.0387,0.0387,0.0415,0.0415,0.0416,0.0454,0.0455,0.0455,0.0488,0.0488,0.0488,0.0488,0.058,0.0583,0.0585,0,0,0,0,0,0,0,0,0,0,0,0,0,0.041,0.0387,0.0415,0.0436,0.0438,0.0454,0.0455,0.0455,0.0487,0.0488,0.0488,0.0489,0.0579,0.0582,0.0586,0.0598,0,0,0.0596,0.0597,0,0,0,0,0,0,0,0,0.0409,0.0412,0.0432,0.0434,0.0437,0.0466,0.0478,0.0505,0.0487,0.047,0.0488,0.0489,0.0546,0.0552,0.0559,0.0602,0.0606,0.0596,0.0598,0.0599,0.06,0,0,0,0,0,0,0,0.0407,0.041,0.0431,0.0433,0.0436,0.045,0.0453,0.0484,0.0507,0.0471,0.0473,0.0476,0.0548,0.0556,0.0562,0.0608,0.0596,0.0599,0.0601,0.0602,0.073,0.0732,0,0,0,0,0,0,0.0399,0.0408,0.043,0.0433,0.0423,0.045,0.0454,0.0457,0.0506,0.0513,0.0476,0.0478,0.055,0.0558,0.0565,0.0648,0.0599,0.0602,0.0604,0.0729,0.0731,0.0732,0,0,0,0,0,0,0.0399,0.0401,0.0429,0.0421,0.0425,0.0449,0.0453,0.0457,0.05,0.0508,0.0517,0.0517,0.0551,0.0561,0.061,0.0649,0.0604,0.0607,0.0727,0.0729,0.0731,0.0771,0,0,0,0,0,0,0.0398,0.04,0.0418,0.042,0.0425,0.0466,0.0452,0.0458,0.0498,0.0502,0.0546,0.0553,0.0552,0.0605,0.0614,0.0653,0.061,0.0725,0.0728,0.0731,0.0768,0.0775,0.078,0,0,0,0,0,0.0396,0.0412,0.0418,0.0422,0.0442,0.0467,0.0473,0.0491,0.05,0.0529,0.0547,0.0553,0.0628,0.0609,0.0619,0.066,0.0724,0.0727,0.073,0.0766,0.0773,0.078,0,0,0,0,0,0,0.0409,0.0417,0.0424,0.0442,0.0467,0.0473,0.0499,0.0514,0.0551,0.0558,0.057,0.0578,0.0635,0.0644,0.0622,0.0704,0.0679,0.0684,0.0702,0.071,0.0715,0.0716,0.0612,0,0,0,0,0,0.0418,0.0435,0.0446,0.0467,0.0479,0.0498,0.0517,0.053,0.0552,0.057,0.0598,0.0625,0.065,0.0677,0.0699,0.0749,0.0742,0.0782,0.0788,0.0793,0.08,0.0809,0.0815,0.0743,0.0743,0.0742,0,0,0.0428,0.0436,0.0446,0.0472,0.0489,0.0511,0.0512,0.0547,0.0572,0.0574,0.0629,0.065,0.0667,0.0713,0.0741,0.0731,0.0811,0.0797,0.0801,0.0806,0.0812,0.0819,0.0825,0.0745,0.0744,0.0744,0,0,0.0444,0.0465,0.0482,0.0506,0.0537,0.0544,0.0564,0.0593,0.0618,0.0667,0.0668,0.0706,0.0763,0.0769,0.0781,0.0836,0.0838,0.0862,0.09,0.0909,0.0914,0.0919,0.0918,0.0922,0.087,0.087,0.087,0,0.0458,0.0479,0.0495,0.0518,0.0546,0.0564,0.0596,0.0615,0.0659,0.0693,0.0694,0.0769,0.0782,0.0825,0.0843,0.0849,0.0857,0.087,0.0915,0.092,0.0924,0.0921,0.0926,0.0872,0.0872,0.0872,0.0871,0,0.0475,0.051,0.0526,0.0557,0.0591,0.0625,0.0648,0.0687,0.0721,0.075,0.0819,0.0826,0.0878,0.0885,0.0884,0.0933,0.0929,0.0915,0.0893,0.0934,0.0929,0.0932,0.0876,0.0875,0.0874,0.0873,0,0,0.0456,0.0526,0.0534,0.0573,0.0621,0.0649,0.0691,0.0747,0.0789,0.0833,0.0898,0.0929,0.0957,0.097,0.0973,0.0976,0.1006,0.0973,0.0972,0.0965,0.1032,0.1011,0.1012,0.101,0.1011,0.1012,0.1015,0,0.0471,0.0529,0.056,0.0629,0.0667,0.0708,0.076,0.0814,0.085,0.0913,0.0936,0.1001,0.0982,0.1022,0.1022,0.1013,0.102,0.1007,0.1,0.1,0.097,0.1017,0.1015,0.1018,0.1019,0.1019,0.102,0,0.0468,0.0519,0.0592,0.0694,0.0718,0.0766,0.0854,0.0901,0.0975,0.1011,0.1061,0.1091,0.1126,0.1096,0.1095,0.1096,0.108,0.1054,0.1053,0.1022,0.0986,0.097,0.1026,0.1026,0.1025,0.1025,0.1025,0,0.0443,0.0536,0.0606,0.0638,0.0749,0.0808,0.0873,0.0951,0.1004,0.1084,0.1122,0.117,0.1208,0.1185,0.1159,0.1142,0.1141,0.1103,0.106,0.1058,0.1055,0.1049,0.1103,0.1103,0.1103,0.1103,0.1103,0,0.0433,0.0485,0.0613,0.0652,0.0758,0.0841,0.0937,0.0994,0.1087,0.1135,0.119,0.1203,0.1238,0.1244,0.1193,0.1149,0.1174,0.1079,0.1065,0.1072,0.1068,0.1057,0.1051,0.1103,0.1103,0.1103,0.1103,0,0.0378,0.0458,0.0546,0.0694,0.0748,0.0828,0.0974,0.1014,0.1119,0.1168,0.1209,0.1272,0.1276,0.1284,0.1258,0.1202,0.115,0.1129,0.1152,0.1137,0.1047,0.1043,0.107,0.1069,0.1069,0.1068,0.1068,0,0.0349,0.0393,0.0559,0.0615,0.0689,0.0814,0.0876,0.1014,0.1037,0.1162,0.1157,0.125,0.1263,0.1203,0.1221,0.1176,0.1151,0.1133,0.1075,0.1063,0.1047,0.1044,0.1042,0.1067,0.1067,0.1067,0.1067,0,0.0296,0.0364,0.043,0.0551,0.0637,0.0721,0.082,0.0846,0.097,0.1077,0.1092,0.113,0.1151,0.1152,0.1178,0.1115,0.1146,0.1127,0.1126,0.1071,0.106,0.1044,0.1042,0.1065,0.1066,0.1066,0.1066,0,0.0248,0.0266,0.036,0.0463,0.0548,0.0591,0.0672,0.072,0.0796,0.0944,0.0939,0.1013,0.1115,0.112,0.1098,0.1103,0.1062,0.1003,0.1008,0.101,0.0996,0.0974,0.0951,0,0,0,0,0,0.0207,0.0205,0.0265,0.0358,0.0432,0.0503,0.0598,0.0669,0.0793,0.0775,0.0875,0.0885,0.0937,0.0974,0.0962,0.1057,0.1053,0.1038,0.0982,0.1056,0.1058,0.1051,0,0,0,0,0,0,0.0168,0.02,0.022,0.0246,0.0292,0.0361,0.0423,0.0518,0.0525,0.0665,0.0687,0.0827,0.0873,0.0928,0.094,0.0958,0.0904,0.1116,0.1113,0.1055,0.1057,0.1058,0.1051,0,0,0,0,0]},{"header":{"parameterUnit":"m.s-1","parameterCategory":2,"la1":30.2991,"la2":30.254,"lo1":-89.0895,"lo2":-89.0444,"dy":0.0017,"dx":0.0017,"nx":28,"ny":28,"refTime":"2024-07-08T03:00:00:Z","depth":"4","parameterNumber":3,"parameterNumberName":"V-component_of_CURRENTS"},"data":[0,0,0,0,0,0,0,0,0,0,0,0,0,0,0,0,0,0,0,0,0,0,0,0,0,0,0,0,0,0,0,0,0,0,0,0,0,0,0,0,0,0,0,0,0,0,0,0,0,0,0,0,0,0,0,0,0,0,-0.0139,-0.0139,0,-0.0177,-0.0177,-0.0178,-0.0254,-0.0255,-0.0257,-0.0258,-0.0354,-0.0355,-0.0356,0,0,0,0,0,0,0,0,0,0,0,0,0,-0.0164,-0.0163,-0.0139,-0.0139,-0.0139,-0.0177,-0.0177,-0.0178,-0.0254,-0.0255,-0.0257,-0.0258,-0.0353,-0.0355,-0.0356,0,0,0,0,0,0,0,0,0,0,0,0,0,-0.0175,-0.0163,-0.0139,-0.018,-0.0184,-0.0176,-0.0177,-0.0178,-0.0253,-0.0255,-0.0257,-0.0259,-0.0353,-0.0355,-0.0357,-0.0331,0,0,-0.0363,-0.0364,0,0,0,0,0,0,0,0,-0.0174,-0.0174,-0.0174,-0.0177,-0.0181,-0.021,-0.0221,-0.0231,-0.0253,-0.023,-0.0258,-0.026,-0.0308,-0.0314,-0.0319,-0.0335,-0.034,-0.0363,-0.0364,-0.0365,-0.0366,0,0,0,0,0,0,0,-0.0173,-0.0173,-0.0157,-0.0173,-0.0178,-0.0207,-0.0211,-0.0224,-0.0261,-0.0232,-0.0237,-0.0236,-0.0311,-0.0317,-0.0322,-0.0341,-0.0363,-0.0365,-0.0366,-0.0367,-0.0463,-0.0465,0,0,0,0,0,0,-0.0159,-0.0172,-0.0155,-0.0157,-0.018,-0.0205,-0.0209,-0.0201,-0.0259,-0.0269,-0.0235,-0.024,-0.0313,-0.032,-0.0326,-0.0396,-0.0365,-0.0367,-0.0368,-0.0462,-0.0464,-0.0465,0,0,0,0,0,0,-0.016,-0.0157,-0.0154,-0.0164,-0.0166,-0.0202,-0.0193,-0.0201,-0.0245,-0.026,-0.0272,-0.0274,-0.0315,-0.0323,-0.0367,-0.0397,-0.0368,-0.037,-0.0461,-0.0463,-0.0464,-0.0474,0,0,0,0,0,0,-0.016,-0.0157,-0.016,-0.0163,-0.0164,-0.0162,-0.0191,-0.02,-0.0237,-0.0246,-0.0297,-0.0306,-0.0317,-0.0363,-0.0369,-0.0399,-0.0371,-0.0459,-0.0461,-0.0464,-0.0472,-0.0476,-0.0479,0,0,0,0,0,-0.0161,-0.0142,-0.0159,-0.0158,-0.0162,-0.0161,-0.0166,-0.02,-0.0238,-0.0249,-0.0293,-0.0306,-0.0384,-0.0365,-0.0371,-0.0403,-0.0458,-0.0461,-0.0464,-0.047,-0.0475,-0.0479,0,0,0,0,0,0,-0.0149,-0.0148,-0.0167,-0.0149,-0.0164,-0.0174,-0.0184,-0.0216,-0.0259,-0.0281,-0.0312,-0.0323,-0.0378,-0.0386,-0.0366,-0.0441,-0.0427,-0.0431,-0.043,-0.0435,-0.0439,-0.0426,-0.0373,0,0,0,0,0,-0.0146,-0.0141,-0.0147,-0.0139,-0.0145,-0.0176,-0.0188,-0.0214,-0.0242,-0.0266,-0.0305,-0.0349,-0.0386,-0.0408,-0.0437,-0.0466,-0.0466,-0.0495,-0.0499,-0.0502,-0.0497,-0.0525,-0.053,-0.0475,-0.0475,-0.0475,0,0,-0.0141,-0.0139,-0.0139,-0.0139,-0.0155,-0.0159,-0.019,-0.021,-0.0232,-0.0267,-0.0322,-0.0364,-0.0399,-0.044,-0.0465,-0.0455,-0.0518,-0.0506,-0.0508,-0.0501,-0.0529,-0.0534,-0.0538,-0.0477,-0.0477,-0.0476,0,0,-0.0116,-0.0128,-0.0117,-0.0128,-0.015,-0.0164,-0.0179,-0.0211,-0.0248,-0.0291,-0.0335,-0.0388,-0.0442,-0.0469,-0.049,-0.0529,-0.054,-0.0558,-0.0562,-0.0589,-0.0593,-0.0597,-0.0596,-0.06,-0.0556,-0.0556,-0.0556,0,-0.0118,-0.01,-0.0115,-0.011,-0.0127,-0.017,-0.0177,-0.0204,-0.0255,-0.0294,-0.0314,-0.0424,-0.045,-0.0505,-0.0524,-0.0536,-0.055,-0.0539,-0.0592,-0.0596,-0.0599,-0.0598,-0.0602,-0.0557,-0.0557,-0.0557,-0.0556,0,-0.0082,-0.0084,-0.0079,-0.0092,-0.0111,-0.0123,-0.0159,-0.0199,-0.0259,-0.0302,-0.0388,-0.0427,-0.0496,-0.0518,-0.0532,-0.0585,-0.0586,-0.0595,-0.0574,-0.0605,-0.0602,-0.0606,-0.0558,-0.0558,-0.0557,-0.0557,0,0,-0.0065,-0.0055,-0.0063,-0.0074,-0.0111,-0.0122,-0.0162,-0.0214,-0.0258,-0.0328,-0.0391,-0.0461,-0.0513,-0.0539,-0.0576,-0.0594,-0.0626,-0.0609,-0.061,-0.0596,-0.0678,-0.0602,-0.0598,-0.0656,-0.0657,-0.0657,-0.0661,0,-0.0049,-0.0027,-0.0038,-0.0055,-0.0059,-0.0113,-0.015,-0.0212,-0.0272,-0.0338,-0.0412,-0.049,-0.0513,-0.0564,-0.0587,-0.0628,-0.0639,-0.0623,-0.066,-0.066,-0.058,-0.0601,-0.0661,-0.0664,-0.0664,-0.0665,-0.0666,0,-0.0025,-0.002,-0.0019,-0.0053,-0.0065,-0.0095,-0.0178,-0.0209,-0.0303,-0.036,-0.0444,-0.0509,-0.0578,-0.0585,-0.065,-0.0648,-0.0663,-0.0675,-0.0676,-0.0602,-0.0591,-0.0631,-0.0672,-0.0672,-0.0671,-0.0671,-0.067,0,-0.002,-0.0017,-0.002,-0.0031,-0.007,-0.0113,-0.0155,-0.0241,-0.0275,-0.0388,-0.0422,-0.0531,-0.0572,-0.0631,-0.0652,-0.0677,-0.0685,-0.0723,-0.0659,-0.0653,-0.0714,-0.071,-0.0749,-0.0749,-0.0749,-0.0749,-0.0749,0,-0.0005,-0.002,-0.0025,-0.0038,-0.009,-0.0119,-0.0189,-0.0247,-0.0306,-0.0312,-0.0441,-0.0438,-0.0586,-0.0605,-0.0649,-0.0643,-0.0686,-0.0654,-0.0652,-0.0718,-0.0714,-0.0716,-0.0712,-0.075,-0.0749,-0.0749,-0.0749,0,-0.0032,-0.0007,-0.0035,-0.0074,-0.0092,-0.015,-0.0211,-0.0231,-0.0292,-0.0289,-0.0328,-0.0394,-0.0423,-0.0515,-0.0581,-0.0607,-0.0633,-0.061,-0.064,-0.064,-0.0592,-0.0589,-0.0588,-0.0586,-0.0584,-0.0582,-0.058,0,-0.0053,-0.0055,-0.009,-0.0102,-0.0136,-0.0196,-0.0218,-0.0259,-0.0226,-0.0209,-0.0166,-0.0227,-0.0264,-0.0299,-0.0413,-0.0516,-0.0516,-0.0549,-0.0614,-0.0579,-0.0577,-0.0578,-0.0577,-0.0577,-0.0576,-0.0576,-0.0575,0,-0.0128,-0.0136,-0.0157,-0.0138,-0.0158,-0.016,-0.0155,-0.0126,-0.0089,-0.0143,-0.0033,-0.0093,-0.0101,-0.0217,-0.0294,-0.0357,-0.0562,-0.0528,-0.0535,-0.0596,-0.0565,-0.0565,-0.0568,-0.0567,-0.0568,-0.0569,-0.057,0,-0.0217,-0.0224,-0.0184,-0.0166,-0.0151,-0.0054,-0.0099,-0.0005,0.0024,0.0076,0.0132,0.0068,0.0002,-0.0123,-0.0168,-0.0262,-0.0313,-0.0367,-0.0384,-0.0394,-0.0346,-0.0278,-0.0183,0,0,0,0,0,-0.0274,-0.0198,-0.0188,-0.0099,-0.0064,-0.0025,0.0023,0.0014,0.007,0.0165,0.0153,0.0155,0.0052,-0.0005,-0.0084,-0.0152,-0.0342,-0.0249,-0.0416,-0.0525,-0.0534,-0.0505,0,0,0,0,0,0,-0.0289,-0.0257,-0.0163,0.0005,0.007,0.0158,0.0185,0.0193,0.0256,0.0258,0.02,0.0144,0.0028,0.0107,-0.0077,-0.0109,-0.0224,-0.0319,-0.032,-0.052,-0.0528,-0.0535,-0.0509,0,0,0,0,0]}]]